Flag for Austria Weather past 2 weeks in Klagenfurt, Carinthia, Austria

Now
34 °F

Sunny.


Feels Like: 34 °F
Forecast: 29 / 41 °F
Wind: 2 mph from North

Location: Klagenfurt-Flughafen

Current Time: Dec 22, 2014 at 2:56:22 PM

Latest Report: Dec 22, 2014 at 2:20 PM


Visibility: 10 mi

Pressure: 30.24 "Hg

Humidity: 87%

Dew point: 30 °F

Location of KlagenfurtLocation

Historic Weather in Klagenfurt — Graph

°F

Klagenfurt temperature yesterday

Maximum temperature yesterday: 48 °F (at 1:50 PM)
Minimum temperature yesterday: 27 °F (at 6:50 AM)
Average temperature yesterday: 34 °F

Past Weeks' High & Low Weather Summary

 TemperatureHumidityPressure
High48 °F (Dec 21, 1:50 PM)100% (Dec 7, 9:50 PM)30.42 "Hg (Dec 7, 9:50 PM)
Low23 °F (Dec 10, 7:20 AM)46% (Dec 21, 3:20 PM)29.86 "Hg (Dec 16, 5:20 PM)
Average34 °F94%30.10 "Hg
* Reported Dec 7 1:20 PM — Dec 22 1:20 PM, Klagenfurt, Weather by CustomWeather, © 2014

Note: Actual official high and low records may vary slightly from our data, if they occured in-between our weather recording intervals... More about our weather records

Advertising

Klagenfurt weather history for previous 24 hours

 ConditionsComfort  
Time TempWeatherWind HumidityBarometerVisibility
1:20 PM
Dec 22
34 °FSunny.1 mph81%30.24 "Hg10 mi
12:50 PM32 °FSunny.3 mph80%30.27 "Hg10 mi
12:20 PM32 °FSunny.6 mph87%30.27 "Hg10 mi
11:50 AM32 °FSunny.5 mph80%30.30 "Hg10 mi
11:20 AM32 °FPassing clouds.3 mph80%30.30 "HgN/A
10:50 AM30 °FSunny.5 mph86%30.30 "Hg10 mi
10:20 AM30 °FSunny.2 mph86%30.30 "Hg10 mi
9:50 AM28 °FSunny.5 mph86%30.30 "Hg10 mi
9:20 AM28 °FSunny.2 mph86%30.30 "Hg10 mi
8:50 AM27 °FSunny.2 mph86%30.30 "Hg10 mi
8:20 AM27 °FSunny.2 mph86%30.30 "Hg10 mi
7:50 AM25 °FSunny.1 mph93%30.30 "Hg10 mi
7:20 AM25 °FClear.1 mph93%30.30 "Hg10 mi
6:50 AM27 °FClear.3 mph86%30.27 "Hg10 mi
6:20 AM27 °FClear.2 mph93%30.27 "Hg10 mi
5:50 AM27 °FPassing clouds.3 mph93%30.27 "HgN/A
5:20 AM27 °FPassing clouds.5 mph93%30.30 "HgN/A
4:50 AM27 °FPassing clouds.3 mph93%30.30 "HgN/A
4:20 AM27 °FPassing clouds.3 mph93%30.30 "HgN/A
3:50 AM27 °FPassing clouds.3 mph93%30.33 "HgN/A
3:20 AM27 °FChilly.3 mph93%30.33 "HgN/A
2:50 AM27 °FChilly.2 mph93%30.33 "HgN/A
2:20 AM27 °FChilly.3 mph93%30.36 "HgN/A
1:50 AM27 °FChilly.3 mph93%30.36 "HgN/A
1:20 AM28 °FClear.1 mph86%30.36 "Hg10 mi
12:50 AM28 °FPassing clouds.5 mph86%30.36 "HgN/A
12:20 AM28 °FChilly.2 mph86%30.39 "HgN/A
11:50 PM
Dec 21
28 °FChilly.1 mph86%30.39 "HgN/A
11:20 PM28 °FPassing clouds.3 mph93%30.39 "HgN/A
10:50 PM28 °FClear.2 mph93%30.39 "Hg10 mi
10:20 PM30 °FPassing clouds.3 mph86%30.42 "HgN/A
9:50 PM28 °FClear.3 mph93%30.42 "Hg10 mi
9:20 PM30 °FClear.2 mph86%30.39 "Hg10 mi
8:50 PM30 °FPassing clouds.3 mph86%30.42 "HgN/A
8:20 PM30 °FClear.5 mph93%30.42 "Hg10 mi
7:50 PM30 °FClear.3 mph93%30.42 "Hg10 mi
7:20 PM30 °FClear.2 mph93%30.42 "Hg10 mi
6:50 PM32 °FClear.2 mph87%30.42 "Hg10 mi
6:20 PM34 °FPassing clouds.3 mph87%30.39 "HgN/A
5:50 PM34 °FClear.3 mph87%30.39 "Hg10 mi
5:20 PM36 °FPassing clouds.3 mph81%30.39 "HgN/A
4:50 PM37 °FClear.1 mph81%30.36 "Hg10 mi
4:20 PM41 °FClear.2 mph70%30.36 "Hg10 mi
3:50 PM43 °FPassing clouds.3 mph71%30.36 "HgN/A
3:20 PM48 °FScattered clouds.2 mph46%30.36 "HgN/A
2:50 PM48 °FPassing clouds.3 mph62%30.36 "HgN/A
2:20 PM48 °FPassing clouds.3 mph66%30.36 "HgN/A
Weather by CustomWeather, © 2014

See weather overviewHow to use our weather pages